Regional Weather Roundup
Issued by NWS

Home | Current Version | Previous Version | Text Only | Print | Product List | Glossary On
Versions: 1 2 3 4 5 6 7 8 9 10 11 12 13 14 15 16 17 18 19 20 21 22 23 24 25 26 27 28 29 30 31 32 33 34 35 36 37 38 39 40 41 42 43
000
ASUS46 KSEW 291010
RWRWA

WASHINGTON REGIONAL WEATHER ROUNDUP
NATIONAL WEATHER SERVICE SEATTLE WA
200 AM PST THU JAN 29 2015

NOTE:"FAIR" INDICATES FEW OR NO CLOUDS BELOW 12,000 FEET WITH NO
SIGNIFICANT WEATHER AND/OR OBSTRUCTIONS TO VISIBILITY.

WAZ505-507>509-291100-
SEATTLE, TACOMA, EVERETT, AND VICINITY

CITY           SKY/WX    TMP DP  RH WIND       PRES   REMARKS
EVERETT        CLEAR     40  38  93 NE3       30.36F
BOEING FIELD   PTCLDY    46  39  76 CALM      30.37S
RENTON         PTCLDY    43  42  97 N5        30.36F
SEATAC AIRPORT MOCLDY    43  39  86 N9        30.36S
JBLM-MCCHORD   CLOUDY    37  37 100 CALM      30.35S
PUYALLUP       DRZL/FOG  39  39 100 MISG      30.35S VSB 1/4
BREMERTON      PTCLDY    41  39  93 NE7       30.38S
JBLM-FT LEWIS  CLOUDY    38  38  99 S3        30.35S FOG
TACOMA NARROWS PTCLDY    44  41  89 N3        30.36S
$$

WAZ001-503-506-510-514-515-291100-
NORTH INTERIOR

CITY           SKY/WX    TMP DP  RH WIND       PRES   REMARKS
BELLINGHAM     CLEAR     35  33  92 NE3       30.39S
FRIDAY HARBOR  CLEAR     39  38  96 CALM      30.40S
EASTSOUND      CLEAR     41  39  93 CALM      30.38S
PORT ANGELES   CLOUDY    38  37  97 SW3       30.38S
NAS WHIDBEY    FOG       43  41  93 N3        30.39F VSB 1
ARLINGTON      CLOUDY    34  32  93 N3        30.38F VSB 1/2
BURLINGTON     CLEAR     39 N/A N/A NE12      30.39F
$$

WAZ020-022-039-040-504-511-512-291100-
SOUTHWEST INTERIOR

CITY           SKY/WX    TMP DP  RH WIND       PRES   REMARKS
SHELTON        MOCLDY    38  36  92 CALM      30.34S
OLYMPIA        FOG       39  38  96 N5        30.36S VSB 1/2
CHEHALIS       FOG       43  43 100 CALM      30.35S VSB 1/4
KELSO          CLOUDY    45  41  87 CALM      30.37S
VANCOUVER      CLOUDY    44  41  89 CALM      30.34R
SCAPPOOSE, OR  FOG       46  45  96 CALM      30.33S VSB 1/4
PORTLAND, OR   CLOUDY    45  42  89 CALM      30.34
$$

WAZ021-516-517-291100-
WASHINGTON COAST

CITY           SKY/WX    TMP DP  RH WIND       PRES   REMARKS
FORKS          CLOUDY    44  41  89 CALM      30.34R
HOQUIAM        MOCLDY    45  43  93 E8        30.33S
ASTORIA, OR    MOCLDY    44  42  93 CALM      30.30S FOG
$$

WAZ019-023-024-040-518-519-291100-
CASCADE MOUNTAINS AND COLUMBIA GORGE

CITY           SKY/WX    TMP DP  RH WIND       PRES   REMARKS
TROUTDALE, OR  CLOUDY    45  37  73 E24G36    30.32R
THE DALLES, OR CLOUDY    41  36  82 E7        30.49S
$$

WAZ026-027-041>044-520-521-291100-
EAST SLOPES

CITY           SKY/WX    TMP DP  RH WIND       PRES   REMARKS
OMAK           CLOUDY    33  30  88 CALM      30.51R
WENATCHEE      CLOUDY    34  30  85 NW3       30.49R
ELLENSBURG     FOG       32  29  88 CALM      30.45R VSB 1/4
YAKIMA         CLOUDY    35  33  92 W3        30.48R FOG
$$

WAZ028-034-035-291100-
COLUMBIA BASIN

CITY           SKY/WX    TMP DP  RH WIND       PRES   REMARKS
EPHRATA        CLOUDY    36  33  89 N8        30.46S
MOSES LAKE     CLOUDY    36  33  89 N9        30.47R
PASCO          CLOUDY    37  35  92 NW10      30.50R
HERMISTON, OR  CLOUDY    37  35  92 N3        30.48R FOG
$$

WAZ036>038-291100-
NORTHEAST WASHINGTON

CITY           SKY/WX    TMP DP  RH WIND       PRES   REMARKS
SPOKANE GEIGER FOG       32  32 100 NE8       30.43R VSB 1/8
SPOKANE FELTS  FOG       34  32  92 E3        30.46R VSB 1
FAIRCHILD AFB  FOG       32  32 100 NE8       30.42S VSB 1/4
COEURDALENE,ID CLOUDY    34  32  93 NE10      30.44R WCI  26
DEER PARK      CLEAR     23  21  92 NW5       30.45R
$$

WAZ029>033-291100-
SOUTHEAST WASHINGTON

CITY           SKY/WX    TMP DP  RH WIND       PRES   REMARKS
PULLMAN        PTCLDY    34  31  88 NE5       30.41S
LEWISTON, ID   PTCLDY    34  33  96 CALM      30.44R
WALLA WALLA    CLOUDY    36  35  96 S3        30.45R FOG
PENDLETON, OR  CLOUDY    34  33  96 E3        30.44R FOG
$$


USA.gov is the U.S. government's official web portal to all federal, state and local government web resources and services.